Leon — D5BH4 — position and weather

sailwx.info

Track history (hours):
 
Tides and Currents Weather Stations Pressure Air Temp Water Temp Dewpoint Dewpoint Depression Visibility Wind Speed Wind Dir Waves Ship Positions

Leon

Last reported at 2014-Oct-24 18:16 UTC. Time now 2014-Oct-25 00:42 UTC.
Position N 58°04' E 006°02'.

Length 95 m; draft 5.5 m.

Type: Ship (hazmat cat C). MMSI: 636015519.

Date/timePositionNaut miles runAvg speedWind from/ knotsBaromVisibWave heightAir tempDewpointWater temp
2014-Oct-24 18:16N 58°04' E 006°02'134 8.5
2014-Oct-24 02:33N 57°52' E 010°13'9 8.9
2014-Oct-24 01:33N 57°53' E 010°30'9 9.0
2014-Oct-24 00:33N 57°49' E 010°45'10 9.5
2014-Oct-23 23:33N 57°43' E 010°59'10 9.6
2014-Oct-23 22:33N 57°36' E 011°11'1010.3
2014-Oct-23 21:33N 57°29' E 011°25'1111.4
2014-Oct-23 20:33N 57°19' E 011°33'1111.1
2014-Oct-23 19:31N 57°08' E 011°40'1111.1
2014-Oct-23 18:33N 56°58' E 011°47'1110.5
2014-Oct-23 17:33N 56°48' E 011°53'1210.9
2014-Oct-23 16:29N 56°37' E 011°58'1010.7
2014-Oct-23 15:33N 56°27' E 012°02'1010.4
2014-Oct-23 14:33N 56°17' E 012°07'1110.7
2014-Oct-23 13:33N 56°11' E 012°23'1212.3
2014-Oct-23 12:33N 56°03' E 012°40'1110.9
2014-Oct-23 11:33N 55°52' E 012°44'1110.6
2014-Oct-23 10:33N 55°42' E 012°41'1110.5
2014-Oct-23 09:33N 55°31' E 012°43'1111.1
2014-Oct-23 08:33N 55°20' E 012°41'1010.3
2014-Oct-23 07:33N 55°10' E 012°40'48 9.5
2014-Oct-23 02:29N 54°25' E 012°11'1010.6
2014-Oct-23 01:33N 54°15' E 012°05'6 5.1
2014-Oct-23 00:16N 54°09' E 012°07'0 0.0
2014-Oct-22 23:28N 54°09' E 012°07'0 0.0
2014-Oct-22 22:28N 54°09' E 012°07'0 0.0
2014-Oct-22 21:13N 54°09' E 012°07'0 0.0
2014-Oct-22 20:32N 54°09' E 012°07'0 0.0
2014-Oct-22 19:31N 54°09' E 012°07'0 0.0
2014-Oct-22 18:10N 54°09' E 012°07'0 0.0
2014-Oct-22 17:13N 54°09' E 012°07'0 0.0
2014-Oct-22 16:22N 54°09' E 012°07'0 0.0
2014-Oct-22 15:28N 54°09' E 012°07'0 0.0
2014-Oct-22 14:28N 54°09' E 012°07'0 0.0
2014-Oct-22 13:10N 54°09' E 012°07'0 0.0
2014-Oct-22 12:31N 54°09' E 012°07'0 0.0
2014-Oct-22 11:25N 54°09' E 012°07'0 0.0
2014-Oct-22 10:28N 54°09' E 012°07'0 0.0
2014-Oct-22 09:25N 54°09' E 012°07'0 0.0
2014-Oct-22 08:28N 54°09' E 012°07'0 0.0
2014-Oct-22 07:28N 54°09' E 012°07'0 0.0
2014-Oct-22 06:22N 54°09' E 012°07'0 0.0
2014-Oct-22 05:28N 54°09' E 012°07'0 0.0
2014-Oct-22 04:22N 54°09' E 012°07'0 0.0
2014-Oct-22 03:28N 54°09' E 012°07'0 0.0
2014-Oct-22 02:31N 54°09' E 012°07'0 0.0
2014-Oct-22 01:28N 54°09' E 012°07'0 0.0
2014-Oct-22 00:31N 54°09' E 012°07'0 0.0
2014-Oct-21 23:31N 54°09' E 012°07'0 0.0
2014-Oct-21 21:31N 54°09' E 012°07'0 0.0
2014-Oct-21 20:28N 54°09' E 012°07'0 0.2
2014-Oct-21 19:33N 54°09' E 012°07'7 7.6
2014-Oct-21 18:34N 54°16' E 012°01'1010.1
2014-Oct-21 17:32N 54°23' E 011°49'4610.7
2014-Oct-21 13:12N 54°32' E 010°30'711.0
2014-Oct-21 12:33N 54°29' E 010°19'10 9.7
2014-Oct-21 11:34N 54°22' E 010°09'4 4.5
2014-Oct-21 10:34N 54°22' E 010°01'8 8.0
2014-Oct-21 09:33N 54°22' E 009°47'10 7.7
2014-Oct-21 08:17N 54°14' E 009°36'28 5.9
2014-Oct-21 03:33N 53°53' E 009°06'7 7.5
2014-Oct-21 02:34N 53°50' E 008°54'7 7.1
2014-Oct-21 01:33N 53°53' E 008°42'8 8.1
2014-Oct-21 00:33N 53°58' E 008°32'9 9.3
2014-Oct-20 23:33N 53°60' E 008°16'1010.0
2014-Oct-20 22:33N 54°01' E 007°59'1110.6
2014-Oct-20 21:33N 54°06' E 007°44'1110.6
2014-Oct-20 20:33N 54°10' E 007°27'1010.4
2014-Oct-20 19:34N 54°20' E 007°23'1010.4
2014-Oct-20 18:34N 54°30' E 007°19'1110.6
2014-Oct-20 17:33N 54°41' E 007°15'1211.1
2014-Oct-20 16:29N 54°52' E 007°07'1010.3
2014-Oct-20 15:33N 55°00' E 006°59'9 8.8
2014-Oct-20 14:33N 55°08' E 006°54'8 8.3
2014-Oct-20 13:33N 55°16' E 006°60'7 7.0
2014-Oct-20 12:33N 55°18' E 007°12'7 7.2
2014-Oct-20 11:33N 55°19' E 007°25'7 7.3
2014-Oct-20 10:34N 55°20' E 007°37'7 7.1
2014-Oct-20 09:33N 55°21' E 007°50'7 6.9
2014-Oct-20 08:33N 55°22' E 008°01'7 7.3
2014-Oct-20 07:33N 55°25' E 008°13'7 7.2
2014-Oct-20 06:34N 55°29' E 008°24'1 0.7
2014-Oct-20 05:32N 55°29' E 008°25'0 0.0
2014-Oct-20 04:32N 55°29' E 008°25'0 0.0
2014-Oct-20 03:05N 55°29' E 008°25'0 0.0
2014-Oct-20 02:17N 55°29' E 008°25'0 0.0
2014-Oct-20 01:32N 55°29' E 008°25'0 0.0
2014-Oct-20 00:20N 55°29' E 008°25'0 0.0
2014-Oct-19 23:20N 55°29' E 008°25'0 0.0
2014-Oct-19 21:26N 55°29' E 008°25'0 0.0
2014-Oct-19 20:26N 55°29' E 008°25'0 0.0
2014-Oct-19 19:29N 55°29' E 008°25'0 0.0
2014-Oct-19 18:26N 55°29' E 008°25'0 0.0
2014-Oct-19 17:29N 55°29' E 008°25'0 0.0
2014-Oct-19 16:32N 55°29' E 008°25'0 0.0
2014-Oct-19 15:32N 55°29' E 008°25'0 0.0
2014-Oct-19 14:32N 55°29' E 008°25'0 0.0
2014-Oct-19 13:32N 55°29' E 008°25'0 0.0
2014-Oct-19 12:17N 55°29' E 008°25'0 0.0
2014-Oct-19 11:32N 55°29' E 008°25'0 0.0
2014-Oct-19 10:32N 55°29' E 008°25'0 0.2
2014-Oct-19 09:33N 55°29' E 008°25'6 6.3
2014-Oct-19 08:33N 55°26' E 008°15'6 5.9
2014-Oct-19 07:33N 55°23' E 008°05'7 6.6
2014-Oct-19 06:33N 55°21' E 007°54'1110.9
2014-Oct-19 05:33N 55°19' E 007°35'1111.0
2014-Oct-19 04:33N 55°18' E 007°16'9 9.5
2014-Oct-19 03:33N 55°16' E 006°60'1110.9
2014-Oct-19 02:33N 55°09' E 006°46'92 9.2
2014-Oct-18 16:32N 54°02' E 004°55'1110.5
2014-Oct-18 15:28N 53°51' E 004°55'2310.7
2014-Oct-18 13:21N 53°29' E 004°45'7911.3
2014-Oct-18 06:19N 52°16' E 003°52'810.3
2014-Oct-18 05:33N 52°08' E 003°54'8 7.6
2014-Oct-18 04:32N 52°01' E 003°59'1212.1
2014-Oct-18 03:33N 51°55' E 004°15'4 3.0
2014-Oct-18 02:11N 51°54' E 004°21'0 0.0
2014-Oct-18 00:32N 51°54' E 004°21'0 0.0
2014-Oct-17 23:23N 51°54' E 004°21'0 0.0
2014-Oct-17 22:29N 51°54' E 004°21'0 0.0
2014-Oct-17 21:29N 51°54' E 004°21'0 0.0
2014-Oct-17 20:17N 51°54' E 004°21'0 0.0
2014-Oct-17 19:23N 51°54' E 004°21'0 0.0
2014-Oct-17 18:29N 51°54' E 004°21'0 0.0
2014-Oct-17 17:23N 51°54' E 004°21'0 0.0
2014-Oct-17 16:23N 51°54' E 004°21'0 0.0
2014-Oct-17 14:23N 51°54' E 004°21'0 0.0
2014-Oct-17 13:29N 51°54' E 004°21'0 0.0
2014-Oct-17 12:23N 51°54' E 004°21'0 0.0
2014-Oct-17 11:11N 51°54' E 004°21'0 0.0
2014-Oct-17 10:29N 51°54' E 004°21'0 0.0
2014-Oct-17 09:20N 51°54' E 004°21'0 0.0
2014-Oct-17 08:29N 51°54' E 004°21'0 0.0
2014-Oct-17 07:29N 51°54' E 004°21'0 0.0
2014-Oct-17 06:23N 51°54' E 004°21'0 0.0
2014-Oct-17 05:18N 51°54' E 004°21'0 0.0
2014-Oct-17 04:31N 51°54' E 004°21'0 0.0
2014-Oct-17 03:31N 51°54' E 004°21'0 0.0
2014-Oct-17 02:28N 51°54' E 004°21'0 0.0
2014-Oct-17 01:28N 51°54' E 004°21'0 0.0
2014-Oct-16 23:25N 51°54' E 004°21'0 0.0
2014-Oct-16 22:31N 51°54' E 004°21'0 0.0
2014-Oct-16 21:31N 51°54' E 004°21'0 0.0
2014-Oct-16 20:31N 51°54' E 004°21'0 0.0
2014-Oct-16 19:31N 51°54' E 004°21'0 0.0
2014-Oct-16 18:31N 51°54' E 004°21'0 0.0
2014-Oct-16 17:13N 51°54' E 004°21'0 0.0
2014-Oct-16 16:31N 51°54' E 004°21'0 0.0
2014-Oct-16 15:25N 51°54' E 004°21'0 0.0
2014-Oct-16 14:04N 51°54' E 004°21'0 0.5
2014-Oct-16 13:33N 51°54' E 004°21'7 6.9
2014-Oct-16 12:33N 51°57' E 004°11'8 7.8
2014-Oct-16 11:33N 52°00' E 003°59'4210.6
2014-Oct-16 07:33N 51°49' E 002°53'2611.5
2014-Oct-16 05:17N 51°33' E 002°20'911.4
2014-Oct-16 04:29N 51°25' E 002°12'1011.1
2014-Oct-16 03:33N 51°16' E 002°06'1111.0
2014-Oct-16 02:33N 51°09' E 001°51'1010.3
2014-Oct-16 01:33N 51°02' E 001°39'10 9.8
2014-Oct-16 00:32N 50°55' E 001°28'  
Track history (hours):
 
Tides and Currents Weather Stations Pressure Air Temp Water Temp Dewpoint Dewpoint Depression Visibility Wind Speed Wind Dir Waves Ship Positions

Leon

Last reported at 2014-Oct-24 18:16 UTC. Time now 2014-Oct-25 00:42 UTC.
Position N 58°04' E 006°02'.

Length 95 m; draft 5.5 m.

Type: Ship (hazmat cat C). MMSI: 636015519.

Date/timePositionNaut miles runAvg speedWind from/ knotsBaromVisibWave heightAir tempDewpointWater temp
2014-Oct-24 18:16N 58°04' E 006°02'134 8.5
2014-Oct-24 02:33N 57°52' E 010°13'9 8.9
2014-Oct-24 01:33N 57°53' E 010°30'9 9.0
2014-Oct-24 00:33N 57°49' E 010°45'10 9.5
2014-Oct-23 23:33N 57°43' E 010°59'10 9.6
2014-Oct-23 22:33N 57°36' E 011°11'1010.3
2014-Oct-23 21:33N 57°29' E 011°25'1111.4
2014-Oct-23 20:33N 57°19' E 011°33'1111.1
2014-Oct-23 19:31N 57°08' E 011°40'1111.1
2014-Oct-23 18:33N 56°58' E 011°47'1110.5
2014-Oct-23 17:33N 56°48' E 011°53'1210.9
2014-Oct-23 16:29N 56°37' E 011°58'1010.7
2014-Oct-23 15:33N 56°27' E 012°02'1010.4
2014-Oct-23 14:33N 56°17' E 012°07'1110.7
2014-Oct-23 13:33N 56°11' E 012°23'1212.3
2014-Oct-23 12:33N 56°03' E 012°40'1110.9
2014-Oct-23 11:33N 55°52' E 012°44'1110.6
2014-Oct-23 10:33N 55°42' E 012°41'1110.5
2014-Oct-23 09:33N 55°31' E 012°43'1111.1
2014-Oct-23 08:33N 55°20' E 012°41'1010.3
2014-Oct-23 07:33N 55°10' E 012°40'48 9.5
2014-Oct-23 02:29N 54°25' E 012°11'1010.6
2014-Oct-23 01:33N 54°15' E 012°05'6 5.1
2014-Oct-23 00:16N 54°09' E 012°07'0 0.0
2014-Oct-22 23:28N 54°09' E 012°07'0 0.0
2014-Oct-22 22:28N 54°09' E 012°07'0 0.0
2014-Oct-22 21:13N 54°09' E 012°07'0 0.0
2014-Oct-22 20:32N 54°09' E 012°07'0 0.0
2014-Oct-22 19:31N 54°09' E 012°07'0 0.0
2014-Oct-22 18:10N 54°09' E 012°07'0 0.0
2014-Oct-22 17:13N 54°09' E 012°07'0 0.0
2014-Oct-22 16:22N 54°09' E 012°07'0 0.0
2014-Oct-22 15:28N 54°09' E 012°07'0 0.0
2014-Oct-22 14:28N 54°09' E 012°07'0 0.0
2014-Oct-22 13:10N 54°09' E 012°07'0 0.0
2014-Oct-22 12:31N 54°09' E 012°07'0 0.0
2014-Oct-22 11:25N 54°09' E 012°07'0 0.0
2014-Oct-22 10:28N 54°09' E 012°07'0 0.0
2014-Oct-22 09:25N 54°09' E 012°07'0 0.0
2014-Oct-22 08:28N 54°09' E 012°07'0 0.0
2014-Oct-22 07:28N 54°09' E 012°07'0 0.0
2014-Oct-22 06:22N 54°09' E 012°07'0 0.0
2014-Oct-22 05:28N 54°09' E 012°07'0 0.0
2014-Oct-22 04:22N 54°09' E 012°07'0 0.0
2014-Oct-22 03:28N 54°09' E 012°07'0 0.0
2014-Oct-22 02:31N 54°09' E 012°07'0 0.0
2014-Oct-22 01:28N 54°09' E 012°07'0 0.0
2014-Oct-22 00:31N 54°09' E 012°07'0 0.0
2014-Oct-21 23:31N 54°09' E 012°07'0 0.0
2014-Oct-21 21:31N 54°09' E 012°07'0 0.0
2014-Oct-21 20:28N 54°09' E 012°07'0 0.2
2014-Oct-21 19:33N 54°09' E 012°07'7 7.6
2014-Oct-21 18:34N 54°16' E 012°01'1010.1
2014-Oct-21 17:32N 54°23' E 011°49'4610.7
2014-Oct-21 13:12N 54°32' E 010°30'711.0
2014-Oct-21 12:33N 54°29' E 010°19'10 9.7
2014-Oct-21 11:34N 54°22' E 010°09'4 4.5
2014-Oct-21 10:34N 54°22' E 010°01'8 8.0
2014-Oct-21 09:33N 54°22' E 009°47'10 7.7
2014-Oct-21 08:17N 54°14' E 009°36'28 5.9
2014-Oct-21 03:33N 53°53' E 009°06'7 7.5
2014-Oct-21 02:34N 53°50' E 008°54'7 7.1
2014-Oct-21 01:33N 53°53' E 008°42'8 8.1
2014-Oct-21 00:33N 53°58' E 008°32'9 9.3
2014-Oct-20 23:33N 53°60' E 008°16'1010.0
2014-Oct-20 22:33N 54°01' E 007°59'1110.6
2014-Oct-20 21:33N 54°06' E 007°44'1110.6
2014-Oct-20 20:33N 54°10' E 007°27'1010.4
2014-Oct-20 19:34N 54°20' E 007°23'1010.4
2014-Oct-20 18:34N 54°30' E 007°19'1110.6
2014-Oct-20 17:33N 54°41' E 007°15'1211.1
2014-Oct-20 16:29N 54°52' E 007°07'1010.3
2014-Oct-20 15:33N 55°00' E 006°59'9 8.8
2014-Oct-20 14:33N 55°08' E 006°54'8 8.3
2014-Oct-20 13:33N 55°16' E 006°60'7 7.0
2014-Oct-20 12:33N 55°18' E 007°12'7 7.2
2014-Oct-20 11:33N 55°19' E 007°25'7 7.3
2014-Oct-20 10:34N 55°20' E 007°37'7 7.1
2014-Oct-20 09:33N 55°21' E 007°50'7 6.9
2014-Oct-20 08:33N 55°22' E 008°01'7 7.3
2014-Oct-20 07:33N 55°25' E 008°13'7 7.2
2014-Oct-20 06:34N 55°29' E 008°24'1 0.7
2014-Oct-20 05:32N 55°29' E 008°25'0 0.0
2014-Oct-20 04:32N 55°29' E 008°25'0 0.0
2014-Oct-20 03:05N 55°29' E 008°25'0 0.0
2014-Oct-20 02:17N 55°29' E 008°25'0 0.0
2014-Oct-20 01:32N 55°29' E 008°25'0 0.0
2014-Oct-20 00:20N 55°29' E 008°25'0 0.0
2014-Oct-19 23:20N 55°29' E 008°25'0 0.0
2014-Oct-19 21:26N 55°29' E 008°25'0 0.0
2014-Oct-19 20:26N 55°29' E 008°25'0 0.0
2014-Oct-19 19:29N 55°29' E 008°25'0 0.0
2014-Oct-19 18:26N 55°29' E 008°25'0 0.0
2014-Oct-19 17:29N 55°29' E 008°25'0 0.0
2014-Oct-19 16:32N 55°29' E 008°25'0 0.0
2014-Oct-19 15:32N 55°29' E 008°25'0 0.0
2014-Oct-19 14:32N 55°29' E 008°25'0 0.0
2014-Oct-19 13:32N 55°29' E 008°25'0 0.0
2014-Oct-19 12:17N 55°29' E 008°25'0 0.0
2014-Oct-19 11:32N 55°29' E 008°25'0 0.0
2014-Oct-19 10:32N 55°29' E 008°25'0 0.2
2014-Oct-19 09:33N 55°29' E 008°25'6 6.3
2014-Oct-19 08:33N 55°26' E 008°15'6 5.9
2014-Oct-19 07:33N 55°23' E 008°05'7 6.6
2014-Oct-19 06:33N 55°21' E 007°54'1110.9
2014-Oct-19 05:33N 55°19' E 007°35'1111.0
2014-Oct-19 04:33N 55°18' E 007°16'9 9.5
2014-Oct-19 03:33N 55°16' E 006°60'1110.9
2014-Oct-19 02:33N 55°09' E 006°46'92 9.2
2014-Oct-18 16:32N 54°02' E 004°55'1110.5
2014-Oct-18 15:28N 53°51' E 004°55'2310.7
2014-Oct-18 13:21N 53°29' E 004°45'7911.3
2014-Oct-18 06:19N 52°16' E 003°52'810.3
2014-Oct-18 05:33N 52°08' E 003°54'8 7.6
2014-Oct-18 04:32N 52°01' E 003°59'1212.1
2014-Oct-18 03:33N 51°55' E 004°15'4 3.0
2014-Oct-18 02:11N 51°54' E 004°21'0 0.0
2014-Oct-18 00:32N 51°54' E 004°21'0 0.0
2014-Oct-17 23:23N 51°54' E 004°21'0 0.0
2014-Oct-17 22:29N 51°54' E 004°21'0 0.0
2014-Oct-17 21:29N 51°54' E 004°21'0 0.0
2014-Oct-17 20:17N 51°54' E 004°21'0 0.0
2014-Oct-17 19:23N 51°54' E 004°21'0 0.0
2014-Oct-17 18:29N 51°54' E 004°21'0 0.0
2014-Oct-17 17:23N 51°54' E 004°21'0 0.0
2014-Oct-17 16:23N 51°54' E 004°21'0 0.0
2014-Oct-17 14:23N 51°54' E 004°21'0 0.0
2014-Oct-17 13:29N 51°54' E 004°21'0 0.0
2014-Oct-17 12:23N 51°54' E 004°21'0 0.0
2014-Oct-17 11:11N 51°54' E 004°21'0 0.0
2014-Oct-17 10:29N 51°54' E 004°21'0 0.0
2014-Oct-17 09:20N 51°54' E 004°21'0 0.0
2014-Oct-17 08:29N 51°54' E 004°21'0 0.0
2014-Oct-17 07:29N 51°54' E 004°21'0 0.0
2014-Oct-17 06:23N 51°54' E 004°21'0 0.0
2014-Oct-17 05:18N 51°54' E 004°21'0 0.0
2014-Oct-17 04:31N 51°54' E 004°21'0 0.0
2014-Oct-17 03:31N 51°54' E 004°21'0 0.0
2014-Oct-17 02:28N 51°54' E 004°21'0 0.0
2014-Oct-17 01:28N 51°54' E 004°21'0 0.0
2014-Oct-16 23:25N 51°54' E 004°21'0 0.0
2014-Oct-16 22:31N 51°54' E 004°21'0 0.0
2014-Oct-16 21:31N 51°54' E 004°21'0 0.0
2014-Oct-16 20:31N 51°54' E 004°21'0 0.0
2014-Oct-16 19:31N 51°54' E 004°21'0 0.0
2014-Oct-16 18:31N 51°54' E 004°21'0 0.0
2014-Oct-16 17:13N 51°54' E 004°21'0 0.0
2014-Oct-16 16:31N 51°54' E 004°21'0 0.0
2014-Oct-16 15:25N 51°54' E 004°21'0 0.0
2014-Oct-16 14:04N 51°54' E 004°21'0 0.5
2014-Oct-16 13:33N 51°54' E 004°21'7 6.9
2014-Oct-16 12:33N 51°57' E 004°11'8 7.8
2014-Oct-16 11:33N 52°00' E 003°59'4210.6
2014-Oct-16 07:33N 51°49' E 002°53'2611.5
2014-Oct-16 05:17N 51°33' E 002°20'911.4
2014-Oct-16 04:29N 51°25' E 002°12'1011.1
2014-Oct-16 03:33N 51°16' E 002°06'1111.0
2014-Oct-16 02:33N 51°09' E 001°51'1010.3
2014-Oct-16 01:33N 51°02' E 001°39'10 9.8
2014-Oct-16 00:32N 50°55' E 001°28'  

Dump ship's entire track history